Regional Weather Roundup
Issued by NWS

Home | Current Version | Previous Version | Text Only | Print | Product List | Glossary Off
Versions: 1 2 3 4 5 6 7 8 9 10 11 12 13 14 15 16 17 18 19 20 21 22 23 24 25 26 27 28 29 30 31 32 33 34 35 36 37 38 39 40 41 42 43 44 45 46 47 48 49 50

000
ASUS44 KMEG 202100
RWRTN
TENNESSEE HOURLY STATE WEATHER ROUNDUP
NATIONAL WEATHER SERVICE MEMPHIS TN
400 PM CDT MON APR 20 2015

TNZ002-004-019-021-049-052-054-088>092-202200-
WEST TENNESSEE

CITY           SKY/WX    TMP DP  RH WIND       PRES   REMARKS
MEMPHIS INTL   MOSUNNY   67  40  37 NW17G23   29.83F
NWS MEMPHIS      N/A     66 N/A N/A MISG        N/A
JACKSON        PTSUNNY   65  41  41 W17G26    29.81S
DYERSBURG      PTSUNNY   63  34  34 W9        29.81S
UNION CITY     PTSUNNY   61  32  33 W14       29.77S
PARIS            N/A     61  39  44 W15       29.78R
LEXINGTON      MOSUNNY   63  39  42 W15       29.78S
SAVANNAH       MOSUNNY   63  32  31 W13G21    29.80F
$$

TNZ008-025-027-028-033-062-065-066-202200-
NORTH MIDDLE TENNESSEE

CITY           SKY/WX    TMP DP  RH WIND       PRES   REMARKS
NASHVILLE      CLOUDY    59  48  67 W14G23    29.76S
CLARKSVILLE    PTSUNNY   62  42  47 W13       29.74F
COOKEVILLE     MOSUNNY   64  50  59 W10       29.70
CROSSVILLE     PTSUNNY   63  46  54 SW12G31   29.72F
$$

TNZ061-075-076-078-094-096-097-202200-
SOUTH MIDDLE TENNESSEE

CITY           SKY/WX    TMP DP  RH WIND       PRES   REMARKS
FAYETTEVILLE   MOSUNNY   64  46  52 W15       29.76S
TULLAHOMA      PTSUNNY   64  48  55 SW15      29.76S
WINCHESTER     MOSUNNY   64  50  59 SW17      29.75S
MCMINNVILLE    PTSUNNY   63  48  59 SW14      29.73S
COLUMBIA       PTSUNNY   61  32  33 W8        29.77R
SHELBYVILLE    CLOUDY    64  52  63 W14       29.76R
$$

TNZ017-018-042-046-047-202200-
NORTHEAST TENNESSEE

CITY           SKY/WX    TMP DP  RH WIND       PRES   REMARKS
TRI CITIES     PTSUNNY   72  49  44 W20G26    29.61F
ELIZABETHTON   PTCLDY    72  52  49 W15       29.62R
$$

TNZ012-013-036-069-073-074-202200-
CENTRAL EAST TENNESSEE

CITY           SKY/WX    TMP DP  RH WIND       PRES   REMARKS
KNOXVILLE      PTSUNNY   70  48  45 SW22      29.65S
OAK RIDGE      MOSUNNY   73  47  39 W12G21    29.66F
GATLINBURG     PTCLDY    72  48  43 W14G26    29.63S
$$

TNZ083-085-099-202200-
SOUTHEAST TENNESSEE

CITY           SKY/WX    TMP DP  RH WIND       PRES   REMARKS
CHATTANOOGA    MOSUNNY   70  49  47 W15G25    29.71S
$$

SKY/WX REPORTED AS FAIR MEANS FEW OR NO CLOUDS BELOW
12 THOUSAND FEET.




USA.gov is the U.S. government's official web portal to all federal, state and local government web resources and services.